JES3166 SAZN-SABE

Flight info

Callsign JES3166
Flight time 1h 21m
Altitude 37000
Route SAZN/27 NIDBA DCT ISMIL UT655 ASADA ASADA8Q
Aircraft A320/M-SDGIRWY/E

Departure

Time 2026-04-20 22:31
Airport Presidente Perón International Airport (SAZN)

Arrival

Time 2026-04-20 23:52
Airport Aeroparque Jorge Newbery (SABE)
Time Latitude Longitude Altitude Speed Heading
2026-04-20 22:26 -38.95094 -68.14184 904 ft 0 kts 91°
2026-04-20 22:28 -38.95094 -68.14176 904 ft 2 kts 91°
2026-04-20 22:28 -38.95095 -68.14148 906 ft 4 kts 91°
2026-04-20 22:28 -38.95095 -68.14103 905 ft 6 kts 91°
2026-04-20 22:28 -38.95096 -68.14042 904 ft 8 kts 91°
2026-04-20 22:29 -38.95076 -68.13977 905 ft 9 kts 29°
2026-04-20 22:29 -38.95022 -68.14012 904 ft 10 kts 320°
2026-04-20 22:29 -38.94968 -68.14077 905 ft 11 kts 314°
2026-04-20 22:29 -38.94911 -68.14145 906 ft 12 kts 315°
2026-04-20 22:30 -38.94902 -68.14190 905 ft 1 kts 269°
2026-04-20 22:30 -38.94902 -68.14242 905 ft 24 kts 269°
2026-04-20 22:30 -38.94902 -68.14855 901 ft 110 kts 270°
2026-04-20 22:30 -38.94889 -68.16126 926 ft 171 kts 271°
2026-04-20 22:31 -38.94880 -68.17677 1710 ft 175 kts 271°
2026-04-20 22:31 -38.94872 -68.19285 2196 ft 189 kts 271°
2026-04-20 22:31 -38.94867 -68.21077 2453 ft 212 kts 272°
2026-04-20 22:31 -38.94863 -68.23093 2808 ft 232 kts 271°
2026-04-20 22:32 -38.94859 -68.25182 3623 ft 234 kts 271°
2026-04-20 22:32 -38.94853 -68.27273 4452 ft 236 kts 271°
2026-04-20 22:32 -38.94832 -68.29387 5281 ft 239 kts 276°
2026-04-20 22:32 -38.94254 -68.31421 5643 ft 259 kts 311°
2026-04-20 22:33 -38.92740 -68.32675 6292 ft 267 kts 346°
2026-04-20 22:33 -38.90892 -68.32572 7031 ft 274 kts 20°
2026-04-20 22:33 -38.89356 -68.31119 7771 ft 282 kts 52°
2026-04-20 22:33 -38.88442 -68.28865 8537 ft 287 kts 69°
2026-04-20 22:34 -38.87827 -68.26412 9302 ft 292 kts 73°
2026-04-20 22:34 -38.87247 -68.23880 10046 ft 297 kts 72°
2026-04-20 22:34 -38.86598 -68.21340 10711 ft 302 kts 69°
2026-04-20 22:34 -38.85851 -68.18801 11367 ft 306 kts 66°
2026-04-20 22:35 -38.85023 -68.16265 12041 ft 311 kts 64°
2026-04-20 22:35 -38.84135 -68.13716 12701 ft 315 kts 63°
2026-04-20 22:35 -38.83368 -68.11039 13180 ft 329 kts 71°
2026-04-20 22:35 -38.82691 -68.08133 13309 ft 351 kts 71°
2026-04-20 22:36 -38.82002 -68.05061 13643 ft 365 kts 72°
2026-04-20 22:36 -38.81306 -68.01900 14189 ft 371 kts 72°
2026-04-20 22:36 -38.80605 -67.98702 14723 ft 375 kts 72°
2026-04-20 22:36 -38.79896 -67.95464 15279 ft 379 kts 71°
2026-04-20 22:37 -38.79159 -67.92190 15829 ft 383 kts 71°
2026-04-20 22:37 -38.78493 -67.88870 16370 ft 387 kts 71°
2026-04-20 22:37 -38.77759 -67.85524 16889 ft 391 kts 70°
2026-04-20 22:37 -38.76983 -67.82166 17418 ft 395 kts 69°
2026-04-20 22:38 -38.76196 -67.78813 17949 ft 399 kts 69°
2026-04-20 22:38 -38.75397 -67.75392 18475 ft 404 kts 69°
2026-04-20 22:38 -38.74598 -67.71919 18944 ft 407 kts 69°
2026-04-20 22:38 -38.73802 -67.68425 19461 ft 410 kts 69°
2026-04-20 22:39 -38.73007 -67.64916 19979 ft 412 kts 69°
2026-04-20 22:39 -38.72203 -67.61366 20540 ft 414 kts 68°
2026-04-20 22:39 -38.71339 -67.57849 21022 ft 412 kts 63°
2026-04-20 22:39 -38.70122 -67.54549 21515 ft 409 kts 56°
2026-04-20 22:40 -38.68802 -67.51320 22006 ft 411 kts 56°
2026-04-20 22:40 -38.67474 -67.48068 22510 ft 412 kts 56°
2026-04-20 22:40 -38.66147 -67.44817 22997 ft 414 kts 55°
2026-04-20 22:40 -38.64827 -67.41587 23477 ft 416 kts 55°
2026-04-20 22:41 -38.63483 -67.38302 23923 ft 417 kts 55°
2026-04-20 22:41 -38.62136 -67.35010 24292 ft 420 kts 55°
2026-04-20 22:41 -38.60772 -67.31686 24632 ft 423 kts 54°
2026-04-20 22:41 -38.59396 -67.28340 24962 ft 427 kts 54°
2026-04-20 22:42 -38.58009 -67.24976 25297 ft 430 kts 54°
2026-04-20 22:42 -38.56610 -67.21581 25631 ft 433 kts 54°
2026-04-20 22:42 -38.55205 -67.18173 25956 ft 436 kts 54°
2026-04-20 22:42 -38.53785 -67.14736 26282 ft 439 kts 54°
2026-04-20 22:43 -38.52350 -67.11270 26605 ft 442 kts 54°
2026-04-20 22:43 -38.50907 -67.07788 26935 ft 445 kts 54°
2026-04-20 22:43 -38.49453 -67.04280 27249 ft 448 kts 54°
2026-04-20 22:43 -38.47993 -67.00757 27564 ft 451 kts 54°
2026-04-20 22:44 -38.46527 -66.97222 27891 ft 454 kts 54°
2026-04-20 22:44 -38.45040 -66.93639 28203 ft 456 kts 54°
2026-04-20 22:44 -38.43549 -66.90046 28514 ft 459 kts 54°
2026-04-20 22:44 -38.42051 -66.86442 28837 ft 462 kts 54°
2026-04-20 22:45 -38.40539 -66.82814 29160 ft 465 kts 54°
2026-04-20 22:45 -38.39012 -66.79161 29488 ft 468 kts 54°
2026-04-20 22:45 -38.37474 -66.75481 29804 ft 471 kts 53°
2026-04-20 22:45 -38.35935 -66.71803 30114 ft 473 kts 53°
2026-04-20 22:46 -38.34377 -66.68092 30420 ft 476 kts 53°
2026-04-20 22:46 -38.32840 -66.64423 30790 ft 475 kts 53°
2026-04-20 22:46 -38.31265 -66.60664 31173 ft 475 kts 53°
2026-04-20 22:46 -38.29709 -66.56955 31536 ft 474 kts 53°
2026-04-20 22:47 -38.28176 -66.53306 31903 ft 474 kts 53°
2026-04-20 22:47 -38.26617 -66.49612 32293 ft 474 kts 53°
2026-04-20 22:47 -38.25061 -66.45929 32663 ft 473 kts 53°
2026-04-20 22:47 -38.23503 -66.42250 33043 ft 473 kts 53°
2026-04-20 22:48 -38.21941 -66.38566 33441 ft 472 kts 53°
2026-04-20 22:48 -38.20381 -66.34890 33836 ft 472 kts 53°
2026-04-20 22:48 -38.18821 -66.31216 34208 ft 472 kts 53°
2026-04-20 22:48 -38.17261 -66.27540 34515 ft 472 kts 53°
2026-04-20 22:49 -38.15707 -66.23877 34805 ft 472 kts 53°
2026-04-20 22:49 -38.14150 -66.20215 35096 ft 472 kts 52°
2026-04-20 22:49 -38.12587 -66.16549 35367 ft 472 kts 52°
2026-04-20 22:49 -38.11022 -66.12886 35642 ft 472 kts 52°
2026-04-20 22:50 -38.09456 -66.09230 35909 ft 472 kts 52°
2026-04-20 22:50 -38.07884 -66.05566 36156 ft 472 kts 52°
2026-04-20 22:50 -38.06317 -66.01920 36408 ft 472 kts 52°
2026-04-20 22:50 -38.04742 -65.98252 36668 ft 472 kts 52°
2026-04-20 22:51 -38.03177 -65.94595 36916 ft 472 kts 52°
2026-04-20 22:51 -38.01608 -65.90937 37139 ft 473 kts 52°
2026-04-20 22:51 -37.98438 -65.83577 37202 ft 477 kts 52°
2026-04-20 22:52 -37.95251 -65.76185 37218 ft 478 kts 52°
2026-04-20 22:52 -37.92077 -65.68827 37208 ft 479 kts 52°
2026-04-20 22:53 -37.88874 -65.61433 37209 ft 479 kts 52°
2026-04-20 22:53 -37.85660 -65.54046 37210 ft 479 kts 52°
2026-04-20 22:54 -37.82441 -65.46650 37210 ft 480 kts 51°
2026-04-20 22:54 -37.79220 -65.39267 37207 ft 480 kts 51°
2026-04-20 22:55 -37.75988 -65.31871 37210 ft 480 kts 51°
2026-04-20 22:55 -37.72747 -65.24485 37212 ft 480 kts 51°
2026-04-20 22:56 -37.69502 -65.17108 37212 ft 481 kts 51°
2026-04-20 22:56 -37.66256 -65.09742 37215 ft 481 kts 51°
2026-04-20 22:57 -37.63000 -65.02371 37215 ft 481 kts 51°
2026-04-20 22:57 -37.59761 -64.95051 37213 ft 481 kts 51°
2026-04-20 22:58 -37.56492 -64.87670 37219 ft 481 kts 51°
2026-04-20 22:58 -37.53216 -64.80307 37216 ft 482 kts 51°
2026-04-20 22:59 -37.49942 -64.72948 37208 ft 482 kts 51°
2026-04-20 22:59 -37.46656 -64.65581 37206 ft 482 kts 51°
2026-04-20 23:00 -37.43361 -64.58220 37203 ft 483 kts 51°
2026-04-20 23:00 -37.40055 -64.50868 37205 ft 483 kts 51°
2026-04-20 23:01 -37.36745 -64.43512 37209 ft 483 kts 51°
2026-04-20 23:01 -37.33431 -64.36167 37213 ft 484 kts 51°
2026-04-20 23:02 -37.30092 -64.28825 37206 ft 484 kts 51°
2026-04-20 23:02 -37.26739 -64.21504 37206 ft 483 kts 51°
2026-04-20 23:03 -37.23382 -64.14195 37204 ft 484 kts 51°
2026-04-20 23:03 -37.20019 -64.06881 37204 ft 484 kts 51°
2026-04-20 23:04 -37.16672 -63.99622 37200 ft 484 kts 51°
2026-04-20 23:04 -37.13293 -63.92319 37200 ft 484 kts 51°
2026-04-20 23:05 -37.09914 -63.85013 37200 ft 485 kts 51°
2026-04-20 23:05 -37.06523 -63.77698 37203 ft 485 kts 51°
2026-04-20 23:06 -37.03134 -63.70398 37203 ft 486 kts 51°
2026-04-20 23:06 -37.00304 -63.64320 37199 ft 485 kts 51°
2026-04-20 23:07 -36.96902 -63.57036 37194 ft 485 kts 51°
2026-04-20 23:07 -36.93497 -63.49758 37197 ft 485 kts 51°
2026-04-20 23:08 -36.90089 -63.42483 37186 ft 484 kts 51°
2026-04-20 23:08 -36.86127 -63.34045 37183 ft 484 kts 51°
2026-04-20 23:09 -36.83267 -63.27972 37180 ft 484 kts 51°
2026-04-20 23:09 -36.79850 -63.20739 37179 ft 484 kts 51°
2026-04-20 23:10 -36.76446 -63.13556 37175 ft 484 kts 50°
2026-04-20 23:10 -36.73023 -63.06329 37165 ft 484 kts 50°
2026-04-20 23:11 -36.69601 -62.99114 37166 ft 484 kts 50°
2026-04-20 23:11 -36.66171 -62.91896 37164 ft 484 kts 50°
2026-04-20 23:12 -36.62732 -62.84687 37164 ft 484 kts 50°
2026-04-20 23:12 -36.59290 -62.77489 37164 ft 484 kts 50°
2026-04-20 23:13 -36.55838 -62.70294 37161 ft 484 kts 50°
2026-04-20 23:13 -36.52384 -62.63114 37157 ft 484 kts 50°
2026-04-20 23:14 -36.48933 -62.55938 37156 ft 484 kts 50°
2026-04-20 23:14 -36.45485 -62.48778 37163 ft 483 kts 50°
2026-04-20 23:15 -36.42034 -62.41615 37161 ft 483 kts 50°
2026-04-20 23:15 -36.38572 -62.34472 37159 ft 483 kts 49°
2026-04-20 23:16 -36.35099 -62.27318 37156 ft 483 kts 49°
2026-04-20 23:16 -36.31630 -62.20200 37152 ft 483 kts 49°
2026-04-20 23:17 -36.28155 -62.13077 37151 ft 483 kts 49°
2026-04-20 23:17 -36.24708 -62.06005 37150 ft 483 kts 49°
2026-04-20 23:18 -36.21235 -61.98890 37145 ft 483 kts 49°
2026-04-20 23:18 -36.17752 -61.91787 37271 ft 482 kts 49°
2026-04-20 23:19 -36.16028 -61.88271 37106 ft 473 kts 49°
2026-04-20 23:19 -36.14342 -61.84819 37131 ft 465 kts 49°
2026-04-20 23:19 -36.10970 -61.77974 37132 ft 466 kts 48°
2026-04-20 23:20 -36.07590 -61.71138 37125 ft 466 kts 48°
2026-04-20 23:20 -36.04209 -61.64292 37125 ft 467 kts 48°
2026-04-20 23:21 -36.00830 -61.57444 37124 ft 467 kts 48°
2026-04-20 23:21 -35.97440 -61.50595 37133 ft 468 kts 48°
2026-04-20 23:22 -35.94044 -61.43742 37127 ft 468 kts 48°
2026-04-20 23:22 -35.90667 -61.36930 37126 ft 469 kts 48°
2026-04-20 23:23 -35.87263 -61.30078 37123 ft 469 kts 48°
2026-04-20 23:23 -35.83865 -61.23207 37117 ft 469 kts 48°
2026-04-20 23:24 -35.80465 -61.16336 37112 ft 469 kts 48°
2026-04-20 23:24 -35.77062 -61.09468 37104 ft 470 kts 48°
2026-04-20 23:25 -35.73647 -61.02591 37102 ft 471 kts 48°
2026-04-20 23:25 -35.70226 -60.95716 37106 ft 471 kts 48°
2026-04-20 23:26 -35.66793 -60.88853 37099 ft 472 kts 48°
2026-04-20 23:26 -35.63354 -60.81976 37104 ft 473 kts 48°
2026-04-20 23:27 -35.59907 -60.75079 37097 ft 473 kts 48°
2026-04-20 23:27 -35.56473 -60.68242 37093 ft 473 kts 48°
2026-04-20 23:28 -35.53008 -60.61368 37088 ft 474 kts 48°
2026-04-20 23:28 -35.49488 -60.54525 36855 ft 474 kts 47°
2026-04-20 23:29 -35.47710 -60.51124 36593 ft 473 kts 47°
2026-04-20 23:29 -35.45930 -60.47726 36343 ft 473 kts 47°
2026-04-20 23:29 -35.44159 -60.44338 36061 ft 471 kts 48°
2026-04-20 23:29 -35.42399 -60.40952 35584 ft 469 kts 48°
2026-04-20 23:30 -35.40655 -60.37586 35098 ft 468 kts 48°
2026-04-20 23:30 -35.38908 -60.34229 34592 ft 466 kts 49°
2026-04-20 23:30 -35.37159 -60.30876 34078 ft 465 kts 49°
2026-04-20 23:30 -35.35424 -60.27544 33524 ft 463 kts 49°
2026-04-20 23:31 -35.33697 -60.24226 33016 ft 460 kts 49°
2026-04-20 23:31 -35.31977 -60.20930 32514 ft 458 kts 49°
2026-04-20 23:31 -35.30268 -60.17660 32009 ft 455 kts 49°
2026-04-20 23:31 -35.28565 -60.14413 31514 ft 452 kts 49°
2026-04-20 23:32 -35.26892 -60.11226 31028 ft 449 kts 49°
2026-04-20 23:32 -35.25209 -60.08021 30546 ft 447 kts 50°
2026-04-20 23:32 -35.23512 -60.04788 30059 ft 444 kts 50°
2026-04-20 23:32 -35.21850 -60.01623 29553 ft 440 kts 50°
2026-04-20 23:33 -35.20226 -59.98533 29121 ft 436 kts 50°
2026-04-20 23:33 -35.18599 -59.95437 28677 ft 431 kts 50°
2026-04-20 23:33 -35.16983 -59.92361 28239 ft 427 kts 50°
2026-04-20 23:33 -35.15384 -59.89327 27810 ft 424 kts 50°
2026-04-20 23:34 -35.13790 -59.86311 27371 ft 421 kts 50°
2026-04-20 23:34 -35.12204 -59.83316 26941 ft 418 kts 50°
2026-04-20 23:34 -35.10627 -59.80340 26509 ft 416 kts 50°
2026-04-20 23:34 -35.09061 -59.77384 26074 ft 414 kts 51°
2026-04-20 23:35 -35.07494 -59.74434 25624 ft 413 kts 51°
2026-04-20 23:35 -35.04375 -59.68561 24713 ft 411 kts 51°
2026-04-20 23:35 -35.02823 -59.65637 24240 ft 411 kts 51°
2026-04-20 23:36 -35.01272 -59.62716 23773 ft 410 kts 51°
2026-04-20 23:36 -34.99733 -59.59814 23238 ft 404 kts 52°
2026-04-20 23:36 -34.98220 -59.56960 22785 ft 396 kts 52°
2026-04-20 23:36 -34.96756 -59.54207 22326 ft 388 kts 52°
2026-04-20 23:37 -34.95284 -59.51441 21865 ft 380 kts 52°
2026-04-20 23:37 -34.93858 -59.48762 21428 ft 373 kts 52°
2026-04-20 23:37 -34.92458 -59.46136 20991 ft 367 kts 52°
2026-04-20 23:37 -34.91094 -59.43582 20563 ft 361 kts 52°
2026-04-20 23:38 -34.89734 -59.41041 20144 ft 357 kts 52°
2026-04-20 23:38 -34.88377 -59.38513 19710 ft 357 kts 52°
2026-04-20 23:38 -34.87019 -59.35987 19292 ft 357 kts 52°
2026-04-20 23:38 -34.85657 -59.33457 18868 ft 357 kts 52°
2026-04-20 23:39 -34.84295 -59.30926 18447 ft 357 kts 53°
2026-04-20 23:39 -34.82937 -59.28403 17785 ft 358 kts 53°
2026-04-20 23:39 -34.81556 -59.25839 16649 ft 365 kts 53°
2026-04-20 23:39 -34.80154 -59.23231 15375 ft 373 kts 54°
2026-04-20 23:40 -34.78722 -59.20563 14184 ft 378 kts 54°
2026-04-20 23:40 -34.77258 -59.17843 12862 ft 392 kts 54°
2026-04-20 23:40 -34.75768 -59.15075 12181 ft 390 kts 54°
2026-04-20 23:40 -34.74285 -59.12321 11536 ft 385 kts 54°
2026-04-20 23:41 -34.72875 -59.09695 11277 ft 357 kts 54°
2026-04-20 23:41 -34.71572 -59.07259 10978 ft 328 kts 54°
2026-04-20 23:41 -34.70366 -59.05008 10617 ft 311 kts 54°
2026-04-20 23:41 -34.69196 -59.02841 10149 ft 304 kts 54°
2026-04-20 23:42 -34.68042 -59.00716 9583 ft 300 kts 53°
2026-04-20 23:42 -34.66899 -58.98613 8985 ft 296 kts 53°
2026-04-20 23:42 -34.65771 -58.96533 8419 ft 293 kts 54°
2026-04-20 23:42 -34.64667 -58.94493 7947 ft 286 kts 54°
2026-04-20 23:43 -34.63589 -58.92503 7589 ft 280 kts 54°
2026-04-20 23:43 -34.62677 -58.90823 7294 ft 280 kts 54°
2026-04-20 23:43 -34.61598 -58.88843 6944 ft 281 kts 54°
2026-04-20 23:43 -34.60527 -58.86873 6652 ft 276 kts 54°
2026-04-20 23:44 -34.59484 -58.84953 6263 ft 267 kts 54°
2026-04-20 23:44 -34.58474 -58.83097 5865 ft 259 kts 54°
2026-04-20 23:44 -34.57493 -58.81297 5511 ft 255 kts 55°
2026-04-20 23:44 -34.56515 -58.79501 5173 ft 256 kts 54°
2026-04-20 23:45 -34.55537 -58.77693 4836 ft 257 kts 56°
2026-04-20 23:45 -34.54563 -58.75855 4482 ft 258 kts 56°
2026-04-20 23:45 -34.53596 -58.74016 4149 ft 258 kts 57°
2026-04-20 23:45 -34.52631 -58.72178 3797 ft 257 kts 58°
2026-04-20 23:46 -34.51698 -58.70400 3623 ft 240 kts 57°
2026-04-20 23:46 -34.50841 -58.68769 3545 ft 219 kts 57°
2026-04-20 23:46 -34.50054 -58.67270 3458 ft 208 kts 57°
2026-04-20 23:46 -34.49279 -58.65796 3368 ft 206 kts 57°
2026-04-20 23:47 -34.48504 -58.64326 3275 ft 206 kts 57°
2026-04-20 23:47 -34.47736 -58.62872 3183 ft 204 kts 57°
2026-04-20 23:47 -34.47017 -58.61417 3093 ft 204 kts 66°
2026-04-20 23:47 -34.46686 -58.59801 3004 ft 194 kts 85°
2026-04-20 23:48 -34.46835 -58.58207 2943 ft 191 kts 103°
2026-04-20 23:48 -34.47426 -58.56757 2773 ft 193 kts 120°
2026-04-20 23:48 -34.48180 -58.55416 2536 ft 192 kts 120°
2026-04-20 23:48 -34.48926 -58.54090 2296 ft 190 kts 120°
2026-04-20 23:49 -34.49656 -58.52787 2054 ft 183 kts 120°
2026-04-20 23:49 -34.50346 -58.51558 1816 ft 171 kts 121°
2026-04-20 23:49 -34.50986 -58.50416 1601 ft 155 kts 120°
2026-04-20 23:49 -34.51562 -58.49388 1416 ft 140 kts 118°
2026-04-20 23:50 -34.52098 -58.48428 1229 ft 135 kts 116°
2026-04-20 23:50 -34.52619 -58.47495 1063 ft 132 kts 118°
2026-04-20 23:50 -34.53134 -58.46574 870 ft 132 kts 122°
2026-04-20 23:50 -34.53649 -58.45651 698 ft 133 kts 121°
2026-04-20 23:51 -34.54170 -58.44718 515 ft 133 kts 122°
2026-04-20 23:51 -34.54692 -58.43785 365 ft 132 kts 122°
2026-04-20 23:51 -34.55207 -58.42865 137 ft 131 kts 123°
2026-04-20 23:51 -34.55696 -58.41988 30 ft 110 kts 123°
2026-04-20 23:52 -34.55975 -58.41486 24 ft 38 kts 124°
2026-04-20 23:52 -34.56037 -58.41376 28 ft 1 kts 125°
2026-04-20 23:52 -34.56052 -58.41349 29 ft 8 kts 125°
2026-04-20 23:52 -34.56093 -58.41276 26 ft 13 kts 124°
2026-04-20 23:53 -34.56153 -58.41167 27 ft 17 kts 123°
2026-04-20 23:53 -34.56185 -58.41049 30 ft 14 kts 70°
2026-04-20 23:53 -34.56142 -58.40977 28 ft 6 kts 18°
2026-04-20 23:53 -34.56114 -58.40998 27 ft 4 kts 311°
2026-04-20 23:54 -34.56098 -58.41024 29 ft 5 kts 307°
2026-04-20 23:54 -34.56070 -58.41067 30 ft 7 kts 308°
2026-04-20 23:54 -34.56044 -58.41109 28 ft 6 kts 307°
2026-04-20 23:54 -34.56022 -58.41145 26 ft 5 kts 307°
2026-04-20 23:55 -34.56004 -58.41172 29 ft 4 kts 307°
2026-04-20 23:55 -34.55984 -58.41205 29 ft 6 kts 307°
2026-04-20 23:55 -34.55964 -58.41237 26 ft 4 kts 307°
2026-04-20 23:55 -34.55952 -58.41256 28 ft 3 kts 308°
2026-04-20 23:56 -34.55936 -58.41281 27 ft 5 kts 308°
2026-04-20 23:56 -34.55899 -58.41305 27 ft 7 kts
2026-04-20 23:56 -34.55854 -58.41281 28 ft 6 kts
2026-04-20 23:56 -34.55825 -58.41305 28 ft 5 kts 304°
2026-04-20 23:57 -34.55810 -58.41333 29 ft 3 kts 302°
2026-04-20 23:57 -34.55796 -58.41349 28 ft 2 kts 342°
2026-04-20 23:57 -34.55781 -58.41342 27 ft 3 kts 25°
2026-04-20 23:57 -34.55767 -58.41331 26 ft 2 kts 34°
2026-04-20 23:58 -34.55761 -58.41327 25 ft 0 kts 34°
2026-04-20 23:58 -34.55760 -58.41325 25 ft 0 kts 34°
2026-04-20 23:58 -34.55759 -58.41325 25 ft 0 kts 34°